| time (UTC) | temp F | wind direction | speed MPH | gust MPH | rain 1hr in | rain 24hr in | rain mn in | humidity % | barometer mb |
| 20260906083312 | 55 | 307 | 1.0 | 4.0 | 0.00 | 0.15 | 0.00 | 91 | 1015.0 |
| 20260906082813 | 55 | 215 | 1.0 | 3.0 | 0.00 | 0.15 | 0.00 | 91 | 1015.1 |
| 20260906082311 | 56 | 226 | 1.0 | 4.0 | 0.00 | 0.15 | 0.00 | 91 | 1015.0 |
| 20260906081811 | 56 | 217 | 1.0 | 5.0 | 0.00 | 0.15 | 0.00 | 92 | 1015.0 |
| 20260906081311 | 56 | 245 | 2.0 | 5.0 | 0.00 | 0.15 | 0.00 | 92 | 1015.1 |
| 20260906080811 | 56 | 195 | 1.0 | 4.0 | 0.00 | 0.15 | 0.00 | 92 | 1015.1 |
| 20260906080311 | 56 | 267 | 0.0 | 2.0 | 0.00 | 0.15 | 0.00 | 92 | 1015.0 |
| 20260906075810 | 56 | 223 | 0.0 | 2.0 | 0.00 | 0.15 | 0.00 | 92 | 1015.0 |
| 20260906075310 | 56 | 224 | 0.0 | 3.0 | 0.00 | 0.15 | 0.00 | 92 | 1015.1 |
| 20260906074812 | 56 | 262 | 0.0 | 3.0 | 0.00 | 0.15 | 0.00 | 92 | 1015.1 |
| 20260906074311 | 56 | 284 | 0.0 | 3.0 | 0.00 | 0.15 | 0.00 | 92 | 1015.2 |
| 20260906073811 | 56 | 243 | 0.0 | 3.0 | 0.00 | 0.15 | 0.00 | 91 | 1015.2 |
| 20260906073314 | 56 | 248 | 0.0 | 3.0 | 0.00 | 0.15 | 0.00 | 91 | 1015.2 |
| 20260906073309 | 56 | 246 | 0.0 | 2.0 | 0.00 | 0.15 | 0.00 | 91 | 1015.3 |
| 20260906072310 | 56 | 250 | 0.0 | 3.0 | 0.00 | 0.15 | 0.00 | 91 | 1015.2 |
| 20260906071810 | 56 | 244 | 0.0 | 3.0 | 0.00 | 0.15 | 0.00 | 91 | 1015.3 |
| 20260906071309 | 56 | 278 | 0.0 | 3.0 | 0.00 | 0.15 | 0.00 | 91 | 1015.3 |
| 20260906070811 | 56 | 244 | 0.0 | 3.0 | 0.00 | 0.15 | 0.00 | 91 | 1015.3 |
| 20260906070309 | 56 | 242 | 1.0 | 3.0 | 0.00 | 0.15 | 0.00 | 91 | 1015.3 |
| 20260906065810 | 56 | 190 | 1.0 | 3.0 | 0.00 | 0.15 | 0.15 | 91 | 1015.2 |
| 20260906065309 | 56 | 259 | 1.0 | 3.0 | 0.00 | 0.15 | 0.15 | 91 | 1015.3 |
| 20260906064809 | 56 | 249 | 1.0 | 4.0 | 0.00 | 0.15 | 0.15 | 91 | 1015.3 |
| 20260906064310 | 56 | 212 | 1.0 | 4.0 | 0.00 | 0.15 | 0.15 | 91 | 1015.3 |
| 20260906063809 | 56 | 232 | 0.0 | 3.0 | 0.00 | 0.15 | 0.15 | 91 | 1015.2 |
| 20260906063313 | 56 | 227 | 1.0 | 3.0 | 0.00 | 0.15 | 0.15 | 91 | 1015.3 |
| 20260906063309 | 56 | 225 | 1.0 | 3.0 | 0.00 | 0.15 | 0.15 | 91 | 1015.3 |
| 20260906062309 | 56 | 255 | 0.0 | 3.0 | 0.00 | 0.15 | 0.15 | 91 | 1015.4 |
| 20260906061808 | 56 | 260 | 0.0 | 3.0 | 0.00 | 0.15 | 0.15 | 91 | 1015.4 |
| 20260906061307 | 56 | 261 | 0.0 | 3.0 | 0.00 | 0.15 | 0.15 | 91 | 1015.4 |
| 20260906060807 | 56 | 238 | 0.0 | 3.0 | 0.00 | 0.15 | 0.15 | 91 | 1015.3 |
| 20260906060307 | 57 | 253 | 0.0 | 2.0 | 0.00 | 0.15 | 0.15 | 91 | 1015.4 |
| 20260906055812 | 57 | 255 | 1.0 | 4.0 | 0.00 | 0.15 | 0.15 | 91 | 1015.5 |
| 20260906055808 | 57 | 254 | 1.0 | 4.0 | 0.00 | 0.15 | 0.15 | 91 | 1015.4 |
| 20260906055306 | 57 | 252 | 1.0 | 3.0 | 0.00 | 0.15 | 0.15 | 91 | 1015.5 |
| 20260906054310 | 57 | 258 | 0.0 | 3.0 | 0.00 | 0.15 | 0.15 | 90 | 1015.5 |
| 20260906054305 | 57 | 212 | 0.0 | 2.0 | 0.00 | 0.15 | 0.15 | 91 | 1015.5 |
| 20260906053305 | 57 | 267 | 0.0 | 3.0 | 0.00 | 0.15 | 0.15 | 90 | 1015.5 |
| 20260906052806 | 57 | 226 | 0.0 | 3.0 | 0.00 | 0.15 | 0.15 | 90 | 1015.6 |
| 20260906052305 | 57 | 224 | 1.0 | 3.0 | 0.00 | 0.15 | 0.15 | 90 | 1015.6 |
| 20260906051803 | 57 | 248 | 1.0 | 3.0 | 0.00 | 0.15 | 0.15 | 90 | 1015.7 |
| 20260906051303 | 57 | 219 | 1.0 | 3.0 | 0.00 | 0.15 | 0.15 | 90 | 1015.6 |
| 20260906050805 | 57 | 265 | 1.0 | 4.0 | 0.00 | 0.15 | 0.15 | 90 | 1015.6 |
| 20260906050308 | 58 | 250 | 1.0 | 4.0 | 0.00 | 0.15 | 0.15 | 90 | 1015.5 |
| 20260906050303 | 58 | 253 | 1.0 | 4.0 | 0.00 | 0.15 | 0.15 | 90 | 1015.5 |
| 20260906045416 | 58 | 220 | 1.0 | 4.0 | 0.00 | 0.15 | 0.15 | 89 | 1015.6 |
| 20260906045309 | 58 | 211 | 1.0 | 4.0 | 0.00 | 0.15 | 0.15 | 89 | 1015.6 |
| 20260906045306 | 58 | 211 | 1.0 | 4.0 | 0.00 | 0.15 | 0.15 | 89 | 1015.5 |
| 20260906043804 | 58 | 213 | 1.0 | 4.0 | 0.00 | 0.15 | 0.15 | 89 | 1015.7 |
| 20260906043302 | 58 | 209 | 2.0 | 5.0 | 0.00 | 0.15 | 0.15 | 89 | 1015.7 |
| 20260906042806 | 58 | 182 | 2.0 | 6.0 | 0.00 | 0.15 | 0.15 | 89 | 1015.7 |
| 20260906042801 | 58 | 209 | 3.0 | 6.0 | 0.00 | 0.15 | 0.15 | 89 | 1015.7 |
| 20260906041800 | 58 | 229 | 2.0 | 7.0 | 0.00 | 0.15 | 0.15 | 89 | 1015.7 |
| 20260906041301 | 58 | 212 | 2.0 | 7.0 | 0.00 | 0.15 | 0.15 | 89 | 1015.7 |
| 20260906040801 | 58 | 218 | 2.0 | 4.0 | 0.00 | 0.15 | 0.15 | 89 | 1015.7 |
| 20260906040302 | 58 | 208 | 1.0 | 4.0 | 0.00 | 0.15 | 0.15 | 89 | 1015.7 |
| 20260906035803 | 58 | 238 | 1.0 | 4.0 | 0.00 | 0.15 | 0.15 | 89 | 1015.7 |
| 20260906035301 | 58 | 235 | 1.0 | 3.0 | 0.00 | 0.15 | 0.15 | 89 | 1015.7 |
| 20260906034800 | 58 | 240 | 1.0 | 5.0 | 0.00 | 0.15 | 0.15 | 88 | 1015.7 |
| 20260906034258 | 58 | 247 | 1.0 | 5.0 | 0.00 | 0.15 | 0.15 | 88 | 1015.7 |
| 20260906033759 | 58 | 223 | 1.0 | 3.0 | 0.00 | 0.15 | 0.15 | 87 | 1015.6 |
| 20260906033259 | 59 | 230 | 1.0 | 5.0 | 0.00 | 0.15 | 0.15 | 87 | 1015.6 |
| 20260906032759 | 59 | 213 | 1.0 | 5.0 | 0.00 | 0.15 | 0.15 | 87 | 1015.6 |
| 20260906032258 | 59 | 219 | 2.0 | 5.0 | 0.00 | 0.15 | 0.15 | 87 | 1015.6 |
| 20260906031759 | 59 | 222 | 1.0 | 5.0 | 0.00 | 0.15 | 0.15 | 86 | 1015.6 |
| 20260906031259 | 59 | 202 | 1.0 | 4.0 | 0.00 | 0.15 | 0.15 | 86 | 1015.5 |
| 20260906030759 | 59 | 208 | 1.0 | 4.0 | 0.00 | 0.15 | 0.15 | 86 | 1015.4 |
| 20260906030300 | 59 | 243 | 1.0 | 5.0 | 0.00 | 0.15 | 0.15 | 86 | 1015.4 |
| 20260906025800 | 60 | 234 | 1.0 | 5.0 | 0.00 | 0.15 | 0.15 | 85 | 1015.4 |
| 20260906025257 | 60 | 234 | 0.0 | 3.0 | 0.00 | 0.15 | 0.15 | 85 | 1015.4 |
| 20260906024757 | 60 | 229 | 1.0 | 3.0 | 0.00 | 0.15 | 0.15 | 85 | 1015.5 |
| 20260906024257 | 60 | 205 | 2.0 | 4.0 | 0.00 | 0.15 | 0.15 | 85 | 1015.5 |
| 20260906023758 | 60 | 209 | 2.0 | 4.0 | 0.00 | 0.15 | 0.15 | 84 | 1015.5 |
| 20260906023301 | 60 | 213 | 2.0 | 4.0 | 0.00 | 0.15 | 0.15 | 84 | 1015.6 |
| 20260906023257 | 60 | 215 | 2.0 | 4.0 | 0.00 | 0.15 | 0.15 | 84 | 1015.5 |
| 20260906022255 | 60 | 225 | 2.0 | 4.0 | 0.00 | 0.15 | 0.15 | 84 | 1015.6 |
| 20260906021754 | 61 | 232 | 1.0 | 4.0 | 0.00 | 0.15 | 0.15 | 84 | 1015.6 |
| 20260906021255 | 61 | 244 | 1.0 | 4.0 | 0.00 | 0.15 | 0.15 | 84 | 1015.6 |
| 20260906020757 | 61 | 242 | 1.0 | 4.0 | 0.00 | 0.15 | 0.15 | 83 | 1015.6 |
| 20260906020753 | 61 | 232 | 1.0 | 4.0 | 0.00 | 0.15 | 0.15 | 83 | 1015.6 |
| 20260906015754 | 62 | 216 | 2.0 | 4.0 | 0.00 | 0.15 | 0.15 | 82 | 1015.7 |
| 20260906015251 | 62 | 229 | 1.0 | 3.0 | 0.00 | 0.15 | 0.15 | 82 | 1015.7 |
| 20260906014751 | 62 | 231 | 1.0 | 3.0 | 0.00 | 0.15 | 0.15 | 81 | 1015.7 |
| 20260906014250 | 62 | 223 | 2.0 | 5.0 | 0.00 | 0.15 | 0.15 | 81 | 1015.6 |
| 20260906013749 | 63 | 244 | 2.0 | 5.0 | 0.00 | 0.15 | 0.15 | 80 | 1015.6 |
| 20260906013249 | 63 | 210 | 2.0 | 4.0 | 0.00 | 0.15 | 0.15 | 79 | 1015.6 |
| 20260906012748 | 64 | 221 | 1.0 | 3.0 | 0.00 | 0.15 | 0.15 | 78 | 1015.6 |
| 20260906012249 | 64 | 219 | 1.0 | 4.0 | 0.00 | 0.15 | 0.15 | 79 | 1015.6 |
| 20260906011748 | 64 | 208 | 2.0 | 6.0 | 0.00 | 0.15 | 0.15 | 79 | 1015.6 |
| 20260906011249 | 64 | 291 | 2.0 | 6.0 | 0.00 | 0.15 | 0.15 | 78 | 1015.5 |
| 20260906010748 | 64 | 315 | 1.0 | 5.0 | 0.00 | 0.15 | 0.15 | 79 | 1015.5 |
| 20260906010248 | 64 | 244 | 1.0 | 5.0 | 0.00 | 0.15 | 0.15 | 79 | 1015.4 |
| 20260906005749 | 64 | 259 | 1.0 | 5.0 | 0.00 | 0.15 | 0.15 | 79 | 1015.4 |
| 20260906005249 | 64 | 257 | 1.0 | 4.0 | 0.00 | 0.15 | 0.15 | 79 | 1015.4 |
| 20260906004747 | 64 | 258 | 1.0 | 4.0 | 0.00 | 0.15 | 0.15 | 79 | 1015.4 |
| 20260906004248 | 64 | 239 | 1.0 | 4.0 | 0.00 | 0.15 | 0.15 | 79 | 1015.4 |
| 20260906003747 | 64 | 240 | 1.0 | 4.0 | 0.00 | 0.15 | 0.15 | 79 | 1015.4 |
| 20260906003248 | 64 | 267 | 1.0 | 3.0 | 0.00 | 0.15 | 0.15 | 78 | 1015.4 |
| 20260906002744 | 64 | 257 | 1.0 | 3.0 | 0.00 | 0.15 | 0.15 | 76 | 1015.5 |
| 20260906002246 | 65 | 246 | 1.0 | 3.0 | 0.00 | 0.15 | 0.15 | 76 | 1015.6 |
| 20260906001744 | 65 | 271 | 1.0 | 3.0 | 0.00 | 0.15 | 0.15 | 76 | 1015.6 |
| 20260906001244 | 65 | 285 | 1.0 | 3.0 | 0.00 | 0.15 | 0.15 | 75 | 1015.6 |
| 20260906000744 | 65 | 267 | 2.0 | 7.0 | 0.00 | 0.15 | 0.15 | 75 | 1015.6 |
| 20260906000248 | 66 | 285 | 2.0 | 7.0 | 0.00 | 0.15 | 0.15 | 75 | 1015.6 |
| 20260905235746 | 66 | 310 | 2.0 | 4.0 | 0.00 | 0.15 | 0.15 | 74 | 1015.5 |
| 20260905235246 | 66 | 250 | 2.0 | 5.0 | 0.00 | 0.15 | 0.15 | 77 | 1015.5 |
| 20260905234752 | 66 | 269 | 2.0 | 3.0 | 0.00 | 0.16 | 0.15 | 73 | 1015.5 |
| 20260905234744 | 65 | 270 | 2.0 | 5.0 | 0.00 | 0.15 | 0.15 | 73 | 1015.5 |
| 20260905234246 | 66 | 306 | 1.0 | 3.0 | 0.00 | 0.15 | 0.15 | 73 | 1015.5 |
| 20260905233244 | 66 | 295 | 2.0 | 6.0 | 0.00 | 0.16 | 0.15 | 75 | 1015.5 |
| 20260905232744 | 65 | 273 | 1.0 | 6.0 | 0.00 | 0.16 | 0.15 | 76 | 1015.6 |
| 20260905232244 | 65 | 281 | 1.0 | 4.0 | 0.00 | 0.16 | 0.15 | 77 | 1015.5 |
| 20260905231745 | 65 | 315 | 1.0 | 4.0 | 0.00 | 0.16 | 0.15 | 75 | 1015.6 |
| 20260905231246 | 65 | 344 | 1.0 | 4.0 | 0.00 | 0.16 | 0.15 | 77 | 1015.7 |
| 20260905230745 | 65 | 288 | 1.0 | 4.0 | 0.00 | 0.17 | 0.15 | 78 | 1015.7 |
| 20260905230244 | 65 | 307 | 1.0 | 4.0 | 0.00 | 0.17 | 0.15 | 80 | 1015.7 |
| 20260905225744 | 64 | 248 | 1.0 | 5.0 | 0.00 | 0.17 | 0.15 | 79 | 1015.8 |
| 20260905225244 | 65 | 302 | 1.0 | 5.0 | 0.00 | 0.17 | 0.15 | 80 | 1015.8 |
| 20260905224744 | 65 | 216 | 1.0 | 4.0 | 0.00 | 0.17 | 0.15 | 77 | 1015.9 |
| 20260905224245 | 65 | 306 | 2.0 | 4.0 | 0.00 | 0.17 | 0.15 | 78 | 1015.9 |
| 20260905223744 | 65 | 288 | 1.0 | 4.0 | 0.00 | 0.17 | 0.15 | 78 | 1015.9 |
| 20260905223245 | 65 | 285 | 2.0 | 4.0 | 0.00 | 0.17 | 0.15 | 79 | 1016.0 |
| 20260905222744 | 65 | 306 | 2.0 | 5.0 | 0.00 | 0.17 | 0.15 | 82 | 1016.1 |
| 20260905222243 | 65 | 198 | 2.0 | 5.0 | 0.00 | 0.17 | 0.15 | 82 | 1016.1 |
| 20260905221743 | 65 | 5 | 2.0 | 4.0 | 0.00 | 0.17 | 0.15 | 82 | 1016.1 |
| 20260905221243 | 64 | 297 | 2.0 | 5.0 | 0.00 | 0.17 | 0.15 | 79 | 1016.1 |
| 20260905220742 | 64 | 237 | 1.0 | 5.0 | 0.00 | 0.17 | 0.15 | 85 | 1016.2 |
| 20260905220248 | 64 | 302 | 1.0 | 5.0 | 0.00 | 0.17 | 0.15 | 82 | 1016.3 |
| 20260905220242 | 64 | 278 | 2.0 | 5.0 | 0.00 | 0.17 | 0.15 | 81 | 1016.2 |
| 20260905215243 | 64 | 312 | 1.0 | 4.0 | 0.02 | 0.17 | 0.15 | 84 | 1016.3 |
| 20260905214746 | 63 | 287 | 1.0 | 4.0 | 0.04 | 0.17 | 0.15 | 86 | 1016.4 |
| 20260905214741 | 63 | 238 | 1.0 | 4.0 | 0.03 | 0.17 | 0.15 | 85 | 1016.4 |
| 20260905213740 | 62 | 306 | 1.0 | 3.0 | 0.05 | 0.17 | 0.15 | 89 | 1016.4 |
| 20260905213238 | 62 | 290 | 1.0 | 3.0 | 0.07 | 0.17 | 0.15 | 88 | 1016.4 |
| 20260905212738 | 61 | 300 | 1.0 | 3.0 | 0.09 | 0.17 | 0.15 | 88 | 1016.4 |
| 20260905212238 | 61 | 296 | 0.0 | 3.0 | 0.12 | 0.17 | 0.15 | 89 | 1016.4 |
| 20260905211739 | 61 | 226 | 0.0 | 0.0 | 0.13 | 0.18 | 0.15 | 87 | 1016.4 |
| 20260905211236 | 61 | 221 | 0.0 | 0.0 | 0.14 | 0.18 | 0.15 | 88 | 1016.7 |
| 20260905210737 | 60 | 221 | 0.0 | 0.0 | 0.14 | 0.19 | 0.15 | 90 | 1016.7 |
| 20260905210236 | 60 | 221 | 0.0 | 0.0 | 0.14 | 0.19 | 0.15 | 89 | 1016.8 |
| 20260905205736 | 60 | 221 | 0.0 | 2.0 | 0.14 | 0.19 | 0.15 | 88 | 1016.8 |
| 20260905205240 | 60 | 221 | 0.0 | 2.0 | 0.11 | 0.16 | 0.12 | 87 | 1016.8 |
| 20260905205236 | 60 | 221 | 0.0 | 2.0 | 0.12 | 0.17 | 0.13 | 89 | 1016.8 |
| 20260905204240 | 60 | 221 | 1.0 | 3.0 | 0.09 | 0.14 | 0.11 | 86 | 1016.8 |
| 20260905204236 | 60 | 221 | 1.0 | 2.0 | 0.10 | 0.15 | 0.11 | 88 | 1016.8 |
| 20260905203237 | 61 | 221 | 1.0 | 3.0 | 0.07 | 0.12 | 0.08 | 86 | 1016.8 |
| 20260905202736 | 61 | 192 | 0.0 | 2.0 | 0.05 | 0.10 | 0.06 | 85 | 1016.8 |
| 20260905202236 | 62 | 187 | 0.0 | 2.0 | 0.02 | 0.07 | 0.03 | 83 | 1016.8 |
| 20260905201734 | 62 | 186 | 0.0 | 2.0 | 0.01 | 0.06 | 0.02 | 82 | 1016.8 |
| 20260905201234 | 62 | 168 | 0.0 | 2.0 | 0.00 | 0.05 | 0.01 | 80 | 1016.8 |
| 20260905200734 | 62 | 168 | 0.0 | 3.0 | 0.00 | 0.06 | 0.01 | 82 | 1016.8 |
| 20260905200234 | 62 | 167 | 0.0 | 3.0 | 0.00 | 0.06 | 0.01 | 83 | 1016.7 |
| 20260905195735 | 62 | 38 | 1.0 | 2.0 | 0.00 | 0.06 | 0.01 | 81 | 1016.7 |
| 20260905195239 | 62 | 355 | 2.0 | 4.0 | 0.00 | 0.07 | 0.01 | 83 | 1016.8 |
| 20260905195235 | 62 | 303 | 1.0 | 4.0 | 0.00 | 0.07 | 0.01 | 82 | 1016.8 |
| 20260905194234 | 62 | 24 | 2.0 | 4.0 | 0.00 | 0.07 | 0.01 | 83 | 1016.8 |
| 20260905193734 | 62 | 9 | 1.0 | 4.0 | 0.00 | 0.08 | 0.01 | 83 | 1016.8 |
| 20260905193235 | 62 | 20 | 1.0 | 7.0 | 0.00 | 0.08 | 0.01 | 83 | 1016.9 |
| 20260905192733 | 62 | 10 | 1.0 | 7.0 | 0.00 | 0.08 | 0.01 | 85 | 1017.0 |
| 20260905192238 | 62 | 28 | 1.0 | 7.0 | 0.00 | 0.08 | 0.01 | 83 | 1016.9 |
| 20260905191732 | 62 | 95 | 1.0 | 7.0 | 0.00 | 0.08 | 0.01 | 85 | 1017.0 |
| 20260905191232 | 62 | 288 | 1.0 | 4.0 | 0.00 | 0.08 | 0.01 | 84 | 1017.0 |
| 20260905190732 | 62 | 34 | 1.0 | 3.0 | 0.00 | 0.08 | 0.01 | 84 | 1017.0 |
| 20260905190232 | 62 | 155 | 1.0 | 4.0 | 0.00 | 0.08 | 0.01 | 87 | 1017.0 |
| 20260905185734 | 61 | 113 | 1.0 | 4.0 | 0.00 | 0.08 | 0.01 | 88 | 1017.1 |
| 20260905185232 | 60 | 19 | 1.0 | 4.0 | 0.00 | 0.08 | 0.01 | 90 | 1017.0 |
| 20260905184732 | 60 | 355 | 1.0 | 3.0 | 0.00 | 0.08 | 0.01 | 88 | 1017.1 |
| 20260905184233 | 59 | 65 | 1.0 | 3.0 | 0.00 | 0.08 | 0.01 | 87 | 1017.1 |
| 20260905183736 | 60 | 225 | 1.0 | 4.0 | 0.00 | 0.08 | 0.01 | 89 | 1017.1 |
| 20260905183731 | 59 | 275 | 1.0 | 4.0 | 0.00 | 0.08 | 0.01 | 89 | 1017.1 |
| 20260905183230 | 59 | 180 | 1.0 | 4.0 | 0.00 | 0.08 | 0.01 | 88 | 1017.1 |
| 20260905182230 | 59 | 44 | 1.0 | 4.0 | 0.00 | 0.08 | 0.01 | 90 | 1017.1 |
| 20260905181736 | 59 | 5 | 1.0 | 4.0 | 0.00 | 0.08 | 0.01 | 91 | 1017.1 |
| 20260905181730 | 59 | 148 | 0.0 | 2.0 | 0.00 | 0.08 | 0.01 | 91 | 1017.1 |
| 20260905181345 | 58 | 0 | 1.0 | 4.0 | 0.00 | 0.08 | 0.01 | 90 | 1017.2 |
| 20260905180842 | 58 | 9 | 1.0 | 3.0 | 0.00 | 0.08 | 0.01 | 90 | 1017.2 |
| 20260905180349 | 58 | 5 | 1.0 | 3.0 | 0.00 | 0.08 | 0.01 | 90 | 1017.2 |
| 20260905175231 | 58 | 25 | 1.0 | 5.0 | 0.00 | 0.08 | 0.01 | 90 | 1017.2 |
| 20260905174734 | 58 | 98 | 1.0 | 5.0 | 0.00 | 0.08 | 0.01 | 89 | 1017.1 |
| 20260905174728 | 58 | 150 | 1.0 | 5.0 | 0.00 | 0.08 | 0.01 | 89 | 1017.1 |
| 20260905173728 | 58 | 136 | 1.0 | 5.0 | 0.00 | 0.08 | 0.01 | 90 | 1017.0 |
| 20260905173228 | 59 | 181 | 1.0 | 9.0 | 0.00 | 0.08 | 0.01 | 90 | 1017.0 |
| 20260905172734 | 59 | 145 | 1.0 | 2.0 | 0.00 | 0.08 | 0.01 | 89 | 1017.0 |
| 20260905172730 | 59 | 143 | 1.0 | 9.0 | 0.00 | 0.08 | 0.01 | 90 | 1017.0 |
| 20260905171733 | 58 | 96 | 1.0 | 5.0 | 0.00 | 0.08 | 0.01 | 90 | 1017.0 |
| 20260905171729 | 58 | 150 | 1.0 | 4.0 | 0.00 | 0.08 | 0.01 | 90 | 1017.0 |
| 20260905171342 | 58 | 172 | 1.0 | 5.0 | 0.00 | 0.08 | 0.01 | 91 | 1017.0 |
| 20260905170841 | 58 | 128 | 1.0 | 5.0 | 0.00 | 0.08 | 0.01 | 92 | 1017.0 |
| 20260905170341 | 58 | 180 | 1.0 | 5.0 | 0.00 | 0.08 | 0.01 | 92 | 1016.9 |
| 20260905165229 | 58 | 169 | 1.0 | 4.0 | 0.00 | 0.08 | 0.01 | 91 | 1016.9 |
| 20260905164728 | 58 | 181 | 1.0 | 4.0 | 0.00 | 0.08 | 0.01 | 92 | 1017.0 |
| 20260905164231 | 58 | 184 | 1.0 | 5.0 | 0.00 | 0.08 | 0.01 | 91 | 1017.0 |
| 20260905164226 | 58 | 172 | 1.0 | 5.0 | 0.00 | 0.08 | 0.01 | 91 | 1017.0 |
| 20260905163840 | 58 | 178 | 1.0 | 6.0 | 0.00 | 0.08 | 0.01 | 92 | 1016.9 |
| 20260905162724 | 58 | 172 | 1.0 | 6.0 | 0.00 | 0.08 | 0.01 | 91 | 1016.9 |
| 20260905162226 | 58 | 175 | 1.0 | 4.0 | 0.00 | 0.08 | 0.01 | 91 | 1016.9 |
| 20260905161724 | 58 | 147 | 1.0 | 3.0 | 0.00 | 0.08 | 0.01 | 90 | 1016.9 |
| 20260905161221 | 58 | 184 | 1.0 | 3.0 | 0.00 | 0.08 | 0.01 | 91 | 1016.9 |
| 20260905160724 | 58 | 0 | 0.0 | 3.0 | 0.00 | 0.08 | 0.01 | 91 | 1016.9 |
| 20260905160222 | 58 | 231 | 0.0 | 2.0 | 0.00 | 0.08 | 0.01 | 91 | 1016.9 |
| 20260905155727 | 58 | 304 | 0.0 | 0.0 | 0.00 | 0.08 | 0.01 | 92 | 1016.9 |
| 20260905155723 | 58 | 304 | 0.0 | 0.0 | 0.00 | 0.08 | 0.01 | 92 | 1016.9 |
| 20260905154723 | 58 | 304 | 0.0 | 0.0 | 0.00 | 0.08 | 0.01 | 94 | 1016.9 |
| 20260905154222 | 57 | 318 | 0.0 | 0.0 | 0.00 | 0.08 | 0.01 | 94 | 1016.9 |
| 20260905153721 | 57 | 318 | 0.0 | 0.0 | 0.00 | 0.08 | 0.01 | 93 | 1016.9 |
| 20260905153222 | 57 | 268 | 0.0 | 0.0 | 0.00 | 0.08 | 0.01 | 94 | 1016.9 |
| 20260905152721 | 57 | 268 | 0.0 | 0.0 | 0.00 | 0.08 | 0.01 | 94 | 1016.9 |
| 20260905152221 | 57 | 268 | 0.0 | 0.0 | 0.00 | 0.08 | 0.01 | 94 | 1016.9 |
| 20260905151721 | 57 | 268 | 0.0 | 0.0 | 0.00 | 0.08 | 0.01 | 95 | 1016.9 |
| 20260905151221 | 57 | 256 | 0.0 | 0.0 | 0.00 | 0.08 | 0.01 | 95 | 1016.9 |
| 20260905150725 | 56 | 248 | 0.0 | 0.0 | 0.00 | 0.08 | 0.01 | 95 | 1016.8 |
| 20260905150721 | 56 | 252 | 0.0 | 0.0 | 0.00 | 0.08 | 0.01 | 95 | 1016.9 |
| 20260905145723 | 56 | 248 | 0.0 | 0.0 | 0.00 | 0.08 | 0.01 | 94 | 1016.9 |
| 20260905145221 | 56 | 247 | 0.0 | 0.0 | 0.00 | 0.08 | 0.01 | 94 | 1016.8 |
| 20260905144725 | 56 | 321 | 0.0 | 0.0 | 0.00 | 0.08 | 0.01 | 95 | 1016.8 |
| 20260905144720 | 56 | 249 | 0.0 | 0.0 | 0.00 | 0.08 | 0.01 | 95 | 1016.8 |
| 20260905144333 | 56 | 321 | 0.0 | 0.0 | 0.00 | 0.08 | 0.01 | 95 | 1016.8 |
| 20260905143219 | 56 | 321 | 0.0 | 0.0 | 0.00 | 0.08 | 0.01 | 95 | 1016.8 |
| 20260905142719 | 56 | 317 | 0.0 | 0.0 | 0.00 | 0.08 | 0.01 | 95 | 1016.8 |
| 20260905142220 | 56 | 317 | 0.0 | 0.0 | 0.01 | 0.08 | 0.01 | 95 | 1016.8 |
| 20260905141721 | 56 | 318 | 0.0 | 0.0 | 0.01 | 0.08 | 0.01 | 95 | 1016.8 |
| 20260905141221 | 56 | 318 | 0.0 | 0.0 | 0.01 | 0.08 | 0.01 | 95 | 1016.7 |
| 20260905140720 | 56 | 317 | 0.0 | 0.0 | 0.01 | 0.08 | 0.01 | 95 | 1016.8 |
| 20260905140220 | 56 | 225 | 0.0 | 0.0 | 0.01 | 0.08 | 0.01 | 95 | 1016.7 |
| 20260905135720 | 56 | 217 | 0.0 | 0.0 | 0.01 | 0.08 | 0.01 | 95 | 1016.7 |
| 20260905135219 | 56 | 217 | 0.0 | 0.0 | 0.01 | 0.08 | 0.01 | 94 | 1016.6 |
| 20260905134719 | 56 | 217 | 0.0 | 0.0 | 0.01 | 0.08 | 0.01 | 94 | 1016.7 |
| 20260905134220 | 56 | 217 | 0.0 | 0.0 | 0.01 | 0.08 | 0.01 | 94 | 1016.7 |
| 20260905133719 | 56 | 221 | 0.0 | 0.0 | 0.01 | 0.08 | 0.01 | 94 | 1016.6 |
| 20260905133219 | 56 | 221 | 0.0 | 0.0 | 0.01 | 0.08 | 0.01 | 95 | 1016.6 |
| 20260905132725 | 56 | 221 | 0.0 | 0.0 | 0.00 | 0.07 | 0.00 | 94 | 1016.4 |
| 20260905132719 | 56 | 221 | 0.0 | 0.0 | 0.01 | 0.08 | 0.01 | 94 | 1016.4 |
| 20260905131723 | 56 | 173 | 0.0 | 0.0 | 0.00 | 0.07 | 0.00 | 95 | 1016.6 |
| 20260905131719 | 56 | 173 | 0.0 | 0.0 | 0.00 | 0.07 | 0.00 | 94 | 1016.6 |
| 20260905130720 | 56 | 173 | 0.0 | 0.0 | 0.00 | 0.07 | 0.00 | 95 | 1016.6 |
| 20260905130219 | 56 | 173 | 0.0 | 0.0 | 0.00 | 0.07 | 0.00 | 94 | 1016.6 |
| 20260905125720 | 56 | 173 | 0.0 | 0.0 | 0.00 | 0.07 | 0.00 | 94 | 1016.4 |
| 20260905125219 | 56 | 173 | 0.0 | 0.0 | 0.00 | 0.07 | 0.00 | 94 | 1016.4 |
| 20260905124721 | 55 | 173 | 0.0 | 0.0 | 0.00 | 0.08 | 0.00 | 94 | 1016.3 |
| 20260905124228 | 55 | 173 | 0.0 | 0.0 | 0.00 | 0.08 | 0.00 | 94 | 1016.3 |
| 20260905124224 | 55 | 173 | 0.0 | 0.0 | 0.00 | 0.08 | 0.00 | 94 | 1016.3 |
| 20260905123219 | 55 | 173 | 0.0 | 0.0 | 0.00 | 0.08 | 0.00 | 94 | 1016.3 |
| 20260905122720 | 55 | 173 | 0.0 | 0.0 | 0.00 | 0.08 | 0.00 | 94 | 1016.3 |
| 20260905122225 | 55 | 173 | 0.0 | 0.0 | 0.00 | 0.08 | 0.00 | 94 | 1016.2 |
| 20260905122219 | 55 | 173 | 0.0 | 0.0 | 0.00 | 0.08 | 0.00 | 94 | 1016.3 |
| 20260905121835 | 55 | 173 | 0.0 | 0.0 | 0.00 | 0.08 | 0.00 | 94 | 1016.1 |
| 20260905121720 | 55 | 173 | 0.0 | 0.0 | 0.00 | 0.08 | 0.00 | 94 | 1016.2 |
| 20260905120217 | 55 | 173 | 0.0 | 0.0 | 0.00 | 0.08 | 0.00 | 94 | 1016.1 |
| 20260905115717 | 55 | 173 | 0.0 | 0.0 | 0.00 | 0.09 | 0.00 | 94 | 1016.2 |
| 20260905115217 | 55 | 172 | 0.0 | 0.0 | 0.00 | 0.09 | 0.00 | 94 | 1016.2 |
| 20260905114717 | 55 | 172 | 0.0 | 0.0 | 0.00 | 0.09 | 0.00 | 94 | 1016.2 |
| 20260905114218 | 55 | 172 | 0.0 | 0.0 | 0.00 | 0.09 | 0.00 | 93 | 1016.1 |
| 20260905113718 | 55 | 172 | 0.0 | 2.0 | 0.00 | 0.09 | 0.00 | 94 | 1016.1 |
| 20260905113217 | 55 | 172 | 0.0 | 2.0 | 0.00 | 0.09 | 0.00 | 93 | 1016.1 |
| 20260905112717 | 56 | 172 | 0.0 | 2.0 | 0.00 | 0.09 | 0.00 | 93 | 1016.1 |
| 20260905112218 | 56 | 172 | 0.0 | 2.0 | 0.00 | 0.09 | 0.00 | 93 | 1016.1 |
| 20260905111717 | 56 | 172 | 0.0 | 0.0 | 0.00 | 0.09 | 0.00 | 94 | 1016.0 |
| 20260905111219 | 56 | 172 | 0.0 | 2.0 | 0.00 | 0.09 | 0.00 | 94 | 1016.0 |
| 20260905111215 | 56 | 172 | 0.0 | 2.0 | 0.00 | 0.09 | 0.00 | 94 | 1016.0 |
| 20260905110215 | 56 | 172 | 0.0 | 2.0 | 0.00 | 0.09 | 0.00 | 94 | 1016.0 |
| 20260905105715 | 56 | 172 | 0.0 | 2.0 | 0.00 | 0.09 | 0.00 | 94 | 1016.0 |
| 20260905105215 | 56 | 172 | 0.0 | 2.0 | 0.00 | 0.09 | 0.00 | 93 | 1016.1 |
| 20260905104723 | 56 | 172 | 0.0 | 2.0 | 0.00 | 0.09 | 0.00 | 94 | 1016.1 |
| 20260905104716 | 56 | 172 | 0.0 | 2.0 | 0.00 | 0.09 | 0.00 | 93 | 1016.1 |
| 20260905104215 | 56 | 172 | 0.0 | 2.0 | 0.00 | 0.09 | 0.00 | 94 | 1016.1 |
| 20260905103717 | 56 | 172 | 0.0 | 2.0 | 0.00 | 0.09 | 0.00 | 94 | 1016.1 |
| 20260905102715 | 56 | 165 | 0.0 | 2.0 | 0.00 | 0.09 | 0.00 | 94 | 1016.1 |
| 20260905102218 | 56 | 165 | 0.0 | 3.0 | 0.00 | 0.09 | 0.00 | 94 | 1016.1 |
| 20260905102214 | 56 | 165 | 0.0 | 3.0 | 0.00 | 0.09 | 0.00 | 94 | 1016.1 |
| 20260905101214 | 56 | 167 | 0.0 | 3.0 | 0.00 | 0.09 | 0.00 | 94 | 1016.1 |
| 20260905100714 | 56 | 171 | 0.0 | 3.0 | 0.00 | 0.09 | 0.00 | 94 | 1016.1 |
| 20260905100219 | 56 | 140 | 0.0 | 2.0 | 0.00 | 0.10 | 0.00 | 94 | 1016.1 |
| 20260905100213 | 56 | 140 | 0.0 | 2.0 | 0.00 | 0.09 | 0.00 | 94 | 1016.1 |
| 20260905095713 | 56 | 140 | 0.0 | 2.0 | 0.00 | 0.09 | 0.00 | 94 | 1016.2 |
| 20260905094713 | 56 | 140 | 0.0 | 2.0 | 0.00 | 0.10 | 0.00 | 94 | 1016.1 |
| 20260905094212 | 56 | 140 | 0.0 | 2.0 | 0.00 | 0.10 | 0.00 | 94 | 1016.1 |
| 20260905093714 | 56 | 140 | 0.0 | 2.0 | 0.00 | 0.10 | 0.00 | 94 | 1016.1 |
| 20260905093217 | 56 | 140 | 0.0 | 2.0 | 0.00 | 0.10 | 0.00 | 94 | 1016.0 |
| 20260905093211 | 56 | 140 | 0.0 | 2.0 | 0.00 | 0.10 | 0.00 | 94 | 1016.0 |
| 20260905092216 | 56 | 140 | 0.0 | 2.0 | 0.00 | 0.10 | 0.00 | 94 | 1015.9 |
| 20260905092212 | 56 | 140 | 0.0 | 2.0 | 0.00 | 0.10 | 0.00 | 94 | 1016.0 |
| 20260905091217 | 56 | 171 | 0.0 | 2.0 | 0.00 | 0.11 | 0.00 | 94 | 1015.8 |
| 20260905091212 | 56 | 140 | 0.0 | 2.0 | 0.00 | 0.10 | 0.00 | 94 | 1015.9 |
| 20260905090711 | 56 | 171 | 0.0 | 2.0 | 0.00 | 0.10 | 0.00 | 94 | 1015.9 |
| 20260905085711 | 56 | 146 | 0.0 | 2.0 | 0.00 | 0.11 | 0.00 | 94 | 1015.9 |
| 20260905085212 | 56 | 145 | 0.0 | 2.0 | 0.00 | 0.12 | 0.00 | 94 | 1015.9 |
| 20260905084716 | 56 | 145 | 0.0 | 2.0 | 0.00 | 0.13 | 0.00 | 93 | 1015.9 |
| 20260905084710 | 56 | 145 | 0.0 | 2.0 | 0.00 | 0.13 | 0.00 | 93 | 1015.9 |
| 20260905083715 | 56 | 145 | 0.0 | 2.0 | 0.00 | 0.16 | 0.00 | 93 | 1015.8 |
| 20260905083711 | 56 | 145 | 0.0 | 2.0 | 0.00 | 0.14 | 0.00 | 93 | 1015.9 |